TimeEST,TemperatureF,Dew PointF,Humidity,Sea Level PressureIn,VisibilityMPH,Wind Direction,Wind SpeedMPH,Gust SpeedMPH,PrecipitationIn,Events,Conditions,WindDirDegrees,DateUTC
12:53 AM,39.9,27.0,60,30.14,10.0,WSW,5.8,-,N/A,,Overcast,250,2013-11-08 05:53:00
1:53 AM,39.9,28.0,63,30.15,10.0,West,8.1,-,N/A,,Mostly Cloudy,270,2013-11-08 06:53:00
2:53 AM,37.9,30.0,73,30.17,10.0,WNW,11.5,17.3,N/A,,Mostly Cloudy,300,2013-11-08 07:53:00
3:32 AM,37.4,30.2,75,30.16,10.0,West,5.8,-,N/A,,Scattered Clouds,280,2013-11-08 08:32:00
3:53 AM,36.0,28.9,76,30.19,10.0,WNW,3.5,-,N/A,,Clear,290,2013-11-08 08:53:00
4:53 AM,36.0,28.0,73,30.20,10.0,West,4.6,-,N/A,,Scattered Clouds,280,2013-11-08 09:53:00
5:53 AM,36.0,28.9,76,30.22,10.0,NW,3.5,-,N/A,,Mostly Cloudy,310,2013-11-08 10:53:00
6:53 AM,33.1,28.0,82,30.24,9.0,Calm,Calm,-,N/A,,Clear,0,2013-11-08 11:53:00
7:53 AM,34.0,28.9,82,30.28,8.0,Calm,Calm,-,N/A,,Clear,0,2013-11-08 12:53:00
8:53 AM,37.0,30.0,76,30.30,10.0,West,5.8,-,N/A,,Mostly Cloudy,280,2013-11-08 13:53:00
9:53 AM,39.9,28.9,65,30.32,10.0,WNW,8.1,-,N/A,,Mostly Cloudy,300,2013-11-08 14:53:00
10:09 AM,39.2,28.4,65,30.30,10.0,West,9.2,-,N/A,,Scattered Clouds,260,2013-11-08 15:09:00
10:28 AM,41.0,28.4,61,30.31,10.0,WNW,9.2,-,N/A,,Mostly Cloudy,290,2013-11-08 15:28:00
10:38 AM,39.2,26.6,61,30.31,10.0,West,8.1,-,N/A,,Scattered Clouds,270,2013-11-08 15:38:00
10:53 AM,41.0,27.0,57,30.33,10.0,West,9.2,-,N/A,,Partly Cloudy,270,2013-11-08 15:53:00
11:53 AM,41.0,24.1,51,30.33,10.0,WNW,8.1,-,N/A,,Mostly Cloudy,300,2013-11-08 16:53:00
12:53 PM,42.1,24.1,49,30.31,10.0,NW,8.1,-,N/A,,Mostly Cloudy,310,2013-11-08 17:53:00
1:53 PM,43.0,24.1,47,30.30,10.0,WNW,10.4,-,N/A,,Overcast,300,2013-11-08 18:53:00
2:53 PM,44.1,25.0,47,30.31,10.0,Variable,5.8,-,N/A,,Mostly Cloudy,0,2013-11-08 19:53:00
3:53 PM,43.0,25.0,49,30.30,10.0,WSW,5.8,-,N/A,,Mostly Cloudy,250,2013-11-08 20:53:00
4:53 PM,41.0,24.1,51,30.30,10.0,West,4.6,-,N/A,,Clear,270,2013-11-08 21:53:00
5:53 PM,36.0,25.0,64,30.31,10.0,Calm,Calm,-,N/A,,Partly Cloudy,0,2013-11-08 22:53:00
6:53 PM,33.1,25.0,72,30.32,10.0,Calm,Calm,-,N/A,,Clear,0,2013-11-08 23:53:00
7:53 PM,30.9,25.0,79,30.33,5.0,Calm,Calm,-,N/A,,Haze,0,2013-11-09 00:53:00
8:53 PM,30.0,24.1,79,30.32,10.0,Calm,Calm,-,N/A,,Clear,0,2013-11-09 01:53:00
9:53 PM,28.0,24.1,85,30.32,10.0,Calm,Calm,-,N/A,,Clear,0,2013-11-09 02:53:00
10:53 PM,28.0,24.1,85,30.31,9.0,Calm,Calm,-,N/A,,Clear,0,2013-11-09 03:53:00
11:53 PM,28.0,23.0,81,30.30,10.0,ESE,3.5,-,N/A,,Clear,120,2013-11-09 04:53:00